Location: Kresge Environmental Education Center
(43.1138°N, 83.2433°W)
Time: 06:19:36
(UTC-04:00)

Daily predictions for brighter satellites

Satellite Brightness Start Highest point End
(mag) Time Altitude Azimuth Time Altitude Azimuth Time Altitude Azimuth
Cosmos 1092 Rocket 4.3 20:51:44 10° N 20:58:06 76° W 21:04:24 10° S
Cosmos 2263 Rocket 2.3 20:52:41 10° NNW 20:58:13 60° ENE 21:03:43 10° SE
Cosmos 1634 Rocket 4.1 20:53:06 10° S 20:59:24 82° E 21:05:45 10° N
Cosmos 1503 Rocket 4.2 20:57:00 10° NNW 21:02:16 81° WSW 21:07:27 10° SSE
Spot 2 Rocket 3.6 20:58:16 10° SSE 21:03:22 85° WSW 21:08:29 10° NNW
Cosmos 968 Rocket 4.3 20:59:07 10° N 21:03:52 34° ENE 21:08:37 10° SE
Cosmos 397 4.4 21:01:45 10° NNW 21:06:04 87° ENE 21:10:08 10° SSE
USA 186 1.5 21:04:41 10° SSE 21:07:30 72° ENE 21:10:32 10° N
SAR-Lupe-4 4.0 21:04:18 10° SE 21:07:42 43° ENE 21:11:09 10° N
Cosmos 1939 Rocket 3.7 21:04:20 10° SE 21:07:56 33° ENE 21:11:32 10° N
Cosmos 1354 Rocket 4.3 21:03:32 10° NNW 21:08:48 71° WSW 21:14:00 10° S
Resurs 1-3 3.8 21:04:54 10° S 21:09:17 76° WSW 21:13:42 10° NNW
Cosmos 2322 Rocket 2.3 21:05:18 10° SSW 21:10:54 85° WNW 21:16:35 10° NNE
Atlas Centaur 2 3.7 21:08:03 10° SW 21:13:20 27° S 21:19:23 10° ESE
Cosmos 1825 2.3 21:13:05 10° N 21:16:55 77° W 21:20:42 10° S
Abrixas rocket 3.8 21:15:03 10° WNW 21:18:03 31° N 21:21:02 10° ENE
H-2A R/B 4.3 21:14:29 10° SSW 21:18:07 38° W 21:21:45 10° NNW
Cosmos 2360 Rocket 2.5 21:13:21 10° S 21:18:40 44° ESE 21:24:02 10° NE
USA 234 3.6 21:12:29 10° ESE 21:18:51 57° NNE 21:25:14 10° NW
Cosmos 1980 Rocket 4.5 21:14:56 10° WSW 21:19:52 30° NW 21:24:50 10° N
Cosmos 1655 Rocket 4.1 21:13:59 10° N 21:20:25 79° E 21:26:45 10° S
COSMOS 2428 3.9 21:16:58 10° SSE 21:21:05 21° E 21:25:13 10° NE
Intercosmos 25 Rocket 3.2 21:18:36 10° S 21:21:52 90° SE 21:26:23 10° N
Meteor 1-29 3.3 21:19:20 10° NNE 21:22:40 43° E 21:25:57 10° S
Envisat 3.0 21:18:32 10° SSE 21:23:34 66° ENE 21:28:36 10° N
SAR-Lupe-1 4.1 21:21:29 10° SSE 21:25:01 61° ENE 21:28:34 10° N
Lacrosse 4 Rocket 2.9 21:21:13 10° NW 21:25:12 36° WSW 21:29:13 10° S
Cosmos 1408 3.3 21:21:57 10° NNW 21:25:34 55° W 21:29:07 10° S
CZ-4B DEB 2.8 21:22:37 10° SSE 21:25:35 54° ENE 21:28:34 10° N
Cosmos 1867 3.7 21:20:37 10° NNW 21:26:04 65° NE 21:30:53 13° SE
Helios 1B rocket 2.4 21:22:21 10° NNE 21:26:26 64° ESE 21:30:30 10° S
Cosmos 2242 Rocket 4.1 21:23:26 10° SSW 21:27:55 66° W 21:32:23 10° N
Milstar 3 4.4 21:22:15 10° WSW 21:28:45 23° SSW 21:33:52 10° SSE
ATLAS 5 CENTAUR R/B 2.5 21:23:40 10° NW 21:29:40 82° NE 21:35:40 13° SE
H-2A R/B 4.0 21:29:01 10° E 21:31:11 13° ENE 21:33:20 10° NNE
Cosmos 2279 Rocket 4.0 21:29:33 10° S 21:35:48 89° WNW 21:42:04 10° N
Cosmos 2322 3.8 21:30:49 10° S 21:36:20 53° ESE 21:41:53 10° NNE
ARGOS 4.3 21:37:29 15° ESE 21:40:47 27° ENE 21:45:12 10° N
SL-16 R/B 3.2 21:36:12 10° SW 21:41:43 51° WNW 21:47:15 10° NNE
ERS-1 Rocket 3.2 21:42:01 16° SE 21:45:54 51° ENE 21:50:46 10° N
SeaSat 1 3.9 21:44:57 14° E 21:47:58 24° NE 21:51:52 10° N
Resurs 01 Rocket 3.9 21:46:49 10° SSW 21:50:27 24° W 21:54:07 10° NW
H-2A R/B 4.3 21:53:54 10° ENE 21:55:10 11° ENE 21:56:27 10° NE
Cosmos 2237 Rocket 4.0 21:58:35 13° E 21:58:35 13° E 22:00:20 10° ENE
NOSS 3-1 (C) 4.1 21:54:38 12° SSE 21:59:04 28° ESE 22:04:16 10° NE
Cosmos 1908 Rocket 3.5 21:55:15 10° N 21:59:36 90° NE 22:02:59 17° S
Cosmos 1844 Rocket 3.2 21:54:23 10° NNW 21:59:42 43° ENE 22:02:44 23° ESE
YAOGAN 6 2.5 21:58:12 23° SSE 22:00:24 80° ENE 22:04:00 10° N
Cosmos 2333 Rocket 3.4 22:00:04 20° ESE 22:00:33 21° E 22:04:40 10° NE
Cosmos 2278 Rocket 3.8 21:56:24 10° N 22:00:41 21° NE 22:03:38 15° E
SPOT 5 3.5 21:59:59 24° ESE 22:02:10 37° ENE 22:06:23 10° N
USA 229 DEB 3.6 21:58:10 10° SSW 22:04:57 75° ESE 22:11:54 10° NE
USA 229 3.6 21:58:17 10° SSW 22:05:05 75° ESE 22:12:01 10° NE
Sich 1 Rocket 3.7 22:01:32 10° N 22:06:02 78° W 22:09:37 16° S
CZ-4C R/B 3.9 22:00:25 10° NNW 22:06:39 34° NE 22:11:50 16° E
MetOp-A 4.3 22:04:26 23° SE 22:07:40 59° ENE 22:12:56 10° N
Cosmos 1782 Rocket 3.5 22:09:51 10° N 22:14:14 76° E 22:16:24 29° SSE
Meteor 2-10 Rocket 4.1 22:09:35 10° SSW 22:15:22 69° WNW 22:21:08 10° N
NOSS 3-1 (A) 4.2 22:15:18 27° ESE 22:15:45 27° ESE 22:20:54 10° NE
SPOT 1/Viking Rocket 4.2 22:16:34 29° ESE 22:18:35 40° ENE 22:23:26 10° N
Cosmos 1777 Rocket 4.0 22:13:58 10° NNW 22:19:16 76° ENE 22:21:49 31° SSE
Cosmos 2219 Rocket 2.7 22:20:01 30° SE 22:21:46 37° ESE 22:26:55 10° NE
Okean 1-7 2.9 22:21:00 25° S 22:23:32 77° E 22:27:57 10° N
USA 245 4.1 22:21:27 31° SE 22:24:00 60° ENE 22:28:39 10° N
USA 267 4.4 22:20:31 10° NE 22:26:36 43° NNW 22:32:42 10° W
Okean 2 Rocket 3.0 22:24:47 10° N 22:29:20 79° E 22:30:55 40° SSE
Cosmos 1782 2.9 22:30:21 51° SE 22:30:51 55° E 22:34:47 10° NNE
Cosmos 2084 4.1 22:33:08 10° NNW 22:36:44 37° NE 22:37:17 35° ENE
Cosmos 1633 3.5 22:36:19 10° N 22:39:16 34° ENE 22:39:16 34° ENE
Nimbus 7 Rocket 4.4 22:34:41 10° NNE 22:40:35 61° ESE 22:43:21 32° S
Cosmos 2263 Rocket 4.3 22:37:43 10° NW 22:41:36 20° W 22:45:30 10° SW
Cosmos 1346 Rocket 4.1 22:46:34 28° ENE 22:46:34 28° ENE 22:49:02 10° NNE
Terra 2.7 22:45:02 31° E 22:45:31 32° ENE 22:49:44 10° N
Meteor 1-27 Rocket 4.1 22:46:37 41° ESE 22:47:19 42° E 22:52:34 10° NNE
Abrixas rocket 3.3 22:52:10 10° WNW 22:55:06 41° N 22:55:06 41° N
Cosmos 1417 Rocket 4.4 22:58:13 42° SSE 23:00:29 72° E 23:06:50 10° NNE
Cosmos 1745 Rocket 4.3 22:55:16 10° N 23:01:28 53° ENE 23:02:51 45° ESE
USA 234 3.7 22:59:28 34° S 23:01:55 48° SW 23:08:13 10° WNW
Atlas Centaur 2 3.7 22:55:58 10° WSW 23:01:59 29° S 23:02:01 29° S
CARTOSAT-1 4.2 23:02:56 43° ENE 23:02:56 43° ENE 23:06:48 10° N
Cosmos 2360 Rocket 4.1 22:57:54 10° WSW 23:02:49 30° NW 23:07:48 10° N
Cosmos 2151 Rocket 3.4 22:59:14 10° N 23:03:42 88° ENE 23:03:58 79° SSE
COSMOS 2428 3.2 22:59:16 10° SW 23:04:51 59° WNW 23:10:31 10° NNE
Meteor 1-10 Rocket 4.4 23:06:13 31° SSW 23:09:12 76° W 23:15:05 10° N
H-2A R/B 1.8 23:09:09 64° S 23:09:56 85° WSW 23:14:53 10° NNW
IGS 5A 4.1 23:10:49 44° NE 23:10:49 44° NE 23:14:15 10° N
MOS 1-B Rocket 4.2 23:09:36 36° SSW 23:11:52 58° WSW 23:17:24 10° NNW
Meteor 1-11 Rocket 3.6 23:07:21 10° N 23:12:53 73° E 23:13:39 63° SE
Cosmos 1980 3.6 23:13:33 62° SE 23:13:50 63° ESE 23:19:25 10° NNE
ATLAS 5 CENTAUR R/B 4.4 23:09:38 10° WNW 23:13:55 20° WSW 23:17:15 13° SW
Cosmos 1844 3.8 23:09:43 10° NNW 23:15:19 65° WSW 23:16:28 52° SSW
Cosmos 1606 3.5 23:17:05 47° W 23:17:05 47° W 23:20:46 10° N
NOSS 0 Rocket 3.8 23:16:17 51° S 23:17:53 75° ESE 23:24:02 10° NNE
Okean 1 Rocket 3.8 23:14:19 10° N 23:17:55 43° NE 23:17:55 43° NE
Cosmos 1674 Rocket 3.9 23:20:35 56° NNE 23:20:35 56° NNE 23:24:06 10° NNE
SL-16 R/B 3.7 23:22:16 22° ENE 23:22:16 22° ENE 23:24:59 10° NE
ARGOS 4.0 23:18:59 33° SW 23:20:47 43° W 23:25:55 10° NNW
DMSP B5D2-2 3.9 23:17:30 10° NNE 23:22:49 78° ESE 23:23:06 75° SE
Cosmos 1570 Rocket 4.2 23:22:48 39° SW 23:24:39 67° WNW 23:29:56 10° NNE
SeaSat 1 2.7 23:24:45 54° SW 23:25:10 56° WSW 23:30:02 10° NW
H-2A R/B 2.3 23:31:01 67° NW 23:31:01 67° NW 23:34:52 10° NNW
Cosmos 1937 Rocket 3.9 23:26:45 10° N 23:31:47 51° ENE 23:31:47 51° ENE
Cosmos 1536 3.9 23:30:31 10° N 23:33:19 42° N 23:33:19 42° N
Cosmos 2208 Rocket 4.4 23:33:32 39° SW 23:35:19 60° WNW 23:40:35 10° NNE
SL-19 R/B 4.2 23:31:40 10° NNE 23:37:44 85° ESE 23:38:21 73° S
Cosmos 990 Rocket 4.4 23:35:39 10° N 23:40:20 49° NE 23:40:20 49° NE
Cosmos 2237 Rocket 2.1 23:40:20 73° SW 23:40:55 86° WNW 23:46:40 10° NNE
Cosmos 1844 Rocket 4.0 23:38:41 10° NW 23:43:22 28° WSW 23:44:25 27° WSW
Cosmos 858 Rocket 4.5 23:38:08 10° NNW 23:43:04 74° NNE 23:43:04 74° NNE
Cosmos 1553 Rocket 4.2 23:41:44 46° SW 23:43:32 67° W 23:49:44 10° N
Cosmos 2333 Rocket 2.6 23:41:57 35° SW 23:44:17 61° WNW 23:50:01 10° NNE
Cosmos 2278 Rocket 2.2 23:39:40 10° NNW 23:45:18 68° WSW 23:45:29 67° WSW
Cosmos 2150 Rocket 4.1 23:43:54 10° NNW 23:49:08 74° NE 23:49:08 74° NE
NOSS 3-1 (C) 4.1 23:43:44 10° SW 23:49:27 54° NW 23:55:55 10° NNE
Iridium 4 Rocket 3.9 23:46:47 10° N 23:49:53 46° NNW 23:49:53 46° NNW
Cosmos 2315 Rocket 4.3 23:51:45 52° ENE 23:51:45 52° ENE 23:57:24 10° NNE
Cosmos 1300 Rocket 4.5 23:49:06 10° NNW 23:52:33 45° WNW 23:52:33 45° WNW
ASTEX 1 4.1 23:54:58 47° W 23:55:02 47° W 23:59:50 10° NNW
